| time (UTC) | temp C | wind direction | speed KPH | gust KPH | rain 1hr cm | rain 24hr cm | rain mn cm | humidity % | barometer mb |
| 20260506150100 | 9 | 43 | 1.6 | 3.2 | 0.00 | 4.32 | 1.52 | 81 | 1010.4 |
| 20260506145600 | 8 | 323 | 1.6 | 3.2 | 0.00 | 4.32 | 1.52 | 81 | 1010.5 |
| 20260506145100 | 8 | 331 | 0.0 | 3.2 | 0.00 | 4.32 | 1.52 | 83 | 1010.5 |
| 20260506144558 | 8 | 319 | 0.0 | 3.2 | 0.00 | 4.32 | 1.52 | 84 | 1010.5 |
| 20260506144100 | 8 | 22 | 0.0 | 3.2 | 0.00 | 4.32 | 1.52 | 83 | 1010.4 |
| 20260506143600 | 8 | 23 | 0.0 | 3.2 | 0.00 | 4.32 | 1.52 | 85 | 1010.3 |
| 20260506143101 | 8 | 328 | 0.0 | 1.6 | 0.00 | 4.32 | 1.52 | 88 | 1010.3 |
| 20260506142601 | 8 | 355 | 0.0 | 3.2 | 0.00 | 4.32 | 1.52 | 89 | 1010.2 |
| 20260506142059 | 8 | 0 | 0.0 | 3.2 | 0.00 | 4.32 | 1.52 | 90 | 1010.2 |
| 20260506141600 | 7 | 264 | 0.0 | 3.2 | 0.00 | 4.32 | 1.52 | 91 | 1010.3 |
| 20260506141059 | 7 | 11 | 0.0 | 3.2 | 0.00 | 4.32 | 1.52 | 93 | 1010.4 |
| 20260506140600 | 7 | 238 | 0.0 | 1.6 | 0.00 | 4.32 | 1.52 | 94 | 1010.2 |
| 20260506135600 | 7 | 0 | 0.0 | 1.6 | 0.00 | 4.32 | 1.52 | 94 | 1010.2 |
| 20260506135100 | 7 | 0 | 0.0 | 1.6 | 0.00 | 4.32 | 1.52 | 94 | 1010.1 |
| 20260506134600 | 7 | 0 | 0.0 | 1.6 | 0.00 | 4.32 | 1.52 | 95 | 1010.1 |
| 20260506134100 | 7 | 0 | 0.0 | 1.6 | 0.00 | 4.32 | 1.52 | 95 | 1010.1 |
| 20260506133600 | 7 | 327 | 0.0 | 1.6 | 0.00 | 4.32 | 1.52 | 95 | 1010.1 |
| 20260506133100 | 7 | 0 | 0.0 | 1.6 | 0.00 | 4.32 | 1.52 | 95 | 1010.0 |
| 20260506132559 | 7 | 0 | 0.0 | 1.6 | 0.00 | 4.32 | 1.52 | 95 | 1010.0 |
| 20260506132100 | 7 | 262 | 0.0 | 1.6 | 0.00 | 4.32 | 1.52 | 95 | 1009.8 |
| 20260506131608 | 7 | 0 | 0.0 | 1.6 | 0.00 | 4.32 | 1.52 | 95 | 1009.7 |
| 20260506131100 | 7 | 262 | 0.0 | 1.6 | 0.00 | 4.32 | 1.52 | 95 | 1009.9 |
| 20260506130600 | 7 | 0 | 0.0 | 1.6 | 0.00 | 4.32 | 1.52 | 95 | 1009.7 |
| 20260506130059 | 7 | 0 | 0.0 | 1.6 | 0.00 | 4.32 | 1.52 | 95 | 1009.3 |
| 20260506125600 | 7 | 260 | 0.0 | 1.6 | 0.00 | 4.32 | 1.52 | 95 | 1009.2 |
| 20260506125059 | 7 | 260 | 0.0 | 1.6 | 0.00 | 4.32 | 1.52 | 95 | 1009.3 |
| 20260506124608 | 7 | 0 | 0.0 | 1.6 | 0.00 | 4.32 | 1.52 | 95 | 1009.4 |
| 20260506124100 | 7 | 0 | 0.0 | 1.6 | 0.00 | 4.32 | 1.52 | 95 | 1009.1 |
| 20260506123559 | 7 | 0 | 0.0 | 1.6 | 0.00 | 4.32 | 1.52 | 95 | 1009.1 |
| 20260506123114 | 7 | 0 | 0.0 | 0.0 | 0.00 | 4.32 | 1.52 | 95 | 1009.5 |
| 20260506122559 | 6 | 0 | 0.0 | 1.6 | 0.00 | 4.32 | 1.52 | 95 | 1009.2 |
| 20260506122100 | 6 | 0 | 0.0 | 1.6 | 0.00 | 4.32 | 1.52 | 95 | 1009.2 |
| 20260506121613 | 7 | 0 | 0.0 | 1.6 | 0.00 | 4.32 | 1.52 | 95 | 1009.2 |
| 20260506121100 | 7 | 0 | 0.0 | 0.0 | 0.00 | 4.32 | 1.52 | 95 | 1009.2 |
| 20260506120600 | 7 | 0 | 0.0 | 1.6 | 0.00 | 4.32 | 1.52 | 95 | 1009.2 |
| 20260506115600 | 7 | 0 | 0.0 | 0.0 | 0.00 | 4.32 | 1.52 | 95 | 1009.0 |
| 20260506115059 | 7 | 0 | 0.0 | 1.6 | 0.00 | 4.32 | 1.52 | 95 | 1009.0 |
| 20260506114558 | 7 | 0 | 0.0 | 1.6 | 0.00 | 4.32 | 1.52 | 95 | 1009.1 |
| 20260506114059 | 7 | 0 | 0.0 | 1.6 | 0.00 | 4.32 | 1.52 | 95 | 1008.9 |
| 20260506113600 | 7 | 0 | 0.0 | 1.6 | 0.00 | 4.32 | 1.52 | 95 | 1008.8 |
| 20260506113101 | 7 | 0 | 0.0 | 1.6 | 0.00 | 4.32 | 1.52 | 95 | 1008.7 |
| 20260506112601 | 7 | 4 | 0.0 | 3.2 | 0.00 | 4.32 | 1.52 | 95 | 1008.6 |
| 20260506112100 | 7 | 0 | 0.0 | 3.2 | 0.00 | 4.32 | 1.52 | 95 | 1008.7 |
| 20260506111602 | 7 | 61 | 0.0 | 1.6 | 0.00 | 4.32 | 1.52 | 95 | 1008.8 |
| 20260506111059 | 7 | 0 | 0.0 | 0.0 | 0.00 | 4.32 | 1.52 | 95 | 1008.6 |
| 20260506110559 | 7 | 0 | 0.0 | 1.6 | 0.00 | 4.32 | 1.52 | 95 | 1008.0 |
| 20260506110107 | 7 | 0 | 0.0 | 1.6 | 0.03 | 4.32 | 1.52 | 95 | 1008.4 |
| 20260506105600 | 7 | 0 | 0.0 | 1.6 | 0.03 | 4.32 | 1.52 | 95 | 1008.6 |
| 20260506105100 | 7 | 24 | 0.0 | 1.6 | 0.05 | 4.32 | 1.52 | 95 | 1008.3 |
| 20260506104609 | 7 | 74 | 0.0 | 1.6 | 0.05 | 4.32 | 1.52 | 95 | 1007.9 |
| 20260506104059 | 7 | 0 | 0.0 | 1.6 | 0.08 | 4.32 | 1.52 | 95 | 1007.9 |
| 20260506103559 | 7 | 0 | 0.0 | 1.6 | 0.10 | 4.32 | 1.52 | 95 | 1007.9 |
| 20260506103106 | 7 | 72 | 0.0 | 1.6 | 0.10 | 4.32 | 1.52 | 95 | 1007.7 |
| 20260506102601 | 7 | 0 | 0.0 | 1.6 | 0.13 | 4.32 | 1.52 | 95 | 1007.6 |
| 20260506102100 | 7 | 0 | 0.0 | 1.6 | 0.18 | 4.32 | 1.52 | 95 | 1007.4 |
| 20260506101637 | 7 | 0 | 0.0 | 1.6 | 0.20 | 4.32 | 1.52 | 95 | 1007.2 |
| 20260506101100 | 7 | 44 | 0.0 | 1.6 | 0.23 | 4.32 | 1.52 | 95 | 1007.5 |
| 20260506100559 | 7 | 0 | 0.0 | 1.6 | 0.25 | 4.32 | 1.52 | 95 | 1007.8 |
| 20260506100100 | 7 | 248 | 0.0 | 0.0 | 0.23 | 4.29 | 1.47 | 95 | 1007.9 |
| 20260506095602 | 7 | 0 | 0.0 | 1.6 | 0.23 | 4.29 | 1.47 | 95 | 1007.9 |
| 20260506095100 | 7 | 0 | 0.0 | 1.6 | 0.20 | 4.27 | 1.47 | 95 | 1008.1 |
| 20260506094600 | 7 | 0 | 0.0 | 0.0 | 0.23 | 4.27 | 1.47 | 95 | 1008.3 |
| 20260506094059 | 7 | 248 | 0.0 | 0.0 | 0.20 | 4.24 | 1.45 | 95 | 1008.3 |
| 20260506093600 | 7 | 0 | 0.0 | 0.0 | 0.18 | 4.22 | 1.42 | 95 | 1008.2 |
| 20260506093102 | 7 | 0 | 0.0 | 1.6 | 0.20 | 4.22 | 1.42 | 95 | 1008.1 |
| 20260506092601 | 7 | 0 | 0.0 | 1.6 | 0.20 | 4.19 | 1.40 | 95 | 1008.1 |
| 20260506092100 | 6 | 0 | 0.0 | 1.6 | 0.15 | 4.14 | 1.32 | 95 | 1008.2 |
| 20260506091559 | 7 | 0 | 0.0 | 0.0 | 0.18 | 4.11 | 1.32 | 95 | 1008.1 |
| 20260506091059 | 6 | 0 | 0.0 | 0.0 | 0.18 | 4.09 | 1.30 | 95 | 1008.0 |
| 20260506090600 | 6 | 0 | 0.0 | 0.0 | 0.18 | 4.06 | 1.27 | 95 | 1007.8 |
| 20260506090111 | 6 | 0 | 0.0 | 1.6 | 0.20 | 4.06 | 1.27 | 95 | 1007.7 |
| 20260506085559 | 6 | 0 | 0.0 | 1.6 | 0.23 | 4.06 | 1.27 | 95 | 1007.6 |
| 20260506085059 | 6 | 46 | 0.0 | 3.2 | 0.28 | 4.06 | 1.27 | 95 | 1007.6 |
| 20260506084633 | 6 | 0 | 0.0 | 3.2 | 0.28 | 4.04 | 1.24 | 95 | 1007.6 |
| 20260506084100 | 6 | 75 | 1.6 | 3.2 | 0.33 | 4.04 | 1.24 | 94 | 1007.5 |
| 20260506083559 | 6 | 0 | 0.0 | 3.2 | 0.38 | 4.04 | 1.24 | 95 | 1007.9 |
| 20260506083059 | 6 | 0 | 1.6 | 3.2 | 0.38 | 4.01 | 1.22 | 94 | 1007.8 |
| 20260506082558 | 6 | 25 | 0.0 | 3.2 | 0.38 | 3.99 | 1.19 | 95 | 1008.0 |
| 20260506082059 | 7 | 0 | 0.0 | 3.2 | 0.43 | 3.99 | 1.19 | 95 | 1008.2 |
| 20260506081613 | 6 | 0 | 0.0 | 3.2 | 0.43 | 3.94 | 1.14 | 95 | 1008.1 |
| 20260506081100 | 6 | 40 | 0.0 | 3.2 | 0.43 | 3.91 | 1.12 | 94 | 1008.1 |
| 20260506080600 | 7 | 7 | 0.0 | 1.6 | 0.43 | 3.89 | 1.09 | 94 | 1008.0 |
| 20260506073105 | 7 | 37 | 0.0 | 4.8 | 0.25 | 3.63 | 0.84 | 94 | 1007.6 |
| 20260506072615 | 7 | 345 | 0.0 | 3.2 | 0.25 | 3.61 | 0.81 | 94 | 1007.5 |
| 20260506072058 | 7 | 314 | 0.0 | 3.2 | 0.25 | 3.56 | 0.76 | 94 | 1007.5 |
| 20260506071601 | 7 | 353 | 0.0 | 4.8 | 0.25 | 3.51 | 0.71 | 94 | 1007.6 |
| 20260506071059 | 7 | 35 | 1.6 | 4.8 | 0.25 | 3.48 | 0.69 | 94 | 1007.5 |
| 20260506070559 | 7 | 73 | 0.0 | 3.2 | 0.25 | 3.45 | 0.66 | 94 | 1007.6 |
| 20260506062100 | 7 | 0 | 0.0 | 1.6 | 0.30 | 3.30 | 0.51 | 94 | 1007.7 |
| 20260506061600 | 7 | 0 | 0.0 | 1.6 | 0.28 | 3.25 | 0.46 | 95 | 1007.6 |
| 20260506061059 | 7 | 0 | 0.0 | 1.6 | 0.25 | 3.23 | 0.43 | 95 | 1007.7 |
| 20260506060600 | 7 | 0 | 0.0 | 3.2 | 0.25 | 3.20 | 0.41 | 95 | 1007.9 |
| 20260506051100 | 8 | 61 | 1.6 | 4.8 | 0.15 | 2.95 | 0.18 | 94 | 1008.5 |
| 20260506050559 | 8 | 37 | 0.0 | 3.2 | 0.13 | 2.95 | 0.15 | 94 | 1008.5 |
| 20260506050117 | 8 | 79 | 0.0 | 3.2 | 0.15 | 2.95 | 0.15 | 94 | 1008.6 |
| 20260506045059 | 8 | 30 | 1.6 | 4.8 | 0.18 | 2.92 | 0.13 | 94 | 1008.6 |
| 20260506044600 | 8 | 0 | 1.6 | 4.8 | 0.20 | 2.92 | 0.13 | 94 | 1008.5 |
| 20260506044058 | 8 | 32 | 1.6 | 3.2 | 0.20 | 2.92 | 0.13 | 95 | 1008.7 |
| 20260506043559 | 8 | 41 | 0.0 | 3.2 | 0.20 | 2.90 | 0.10 | 95 | 1008.7 |
| 20260506043101 | 8 | 46 | 1.6 | 3.2 | 0.20 | 2.90 | 0.10 | 94 | 1008.7 |
| 20260506042559 | 8 | 7 | 1.6 | 3.2 | 0.20 | 2.87 | 0.08 | 94 | 1008.7 |
| 20260506042058 | 8 | 75 | 0.0 | 3.2 | 0.20 | 2.87 | 0.08 | 95 | 1008.9 |
| 20260506041606 | 8 | 88 | 1.6 | 3.2 | 0.20 | 2.84 | 0.05 | 95 | 1008.8 |
| 20260506041059 | 8 | 31 | 1.6 | 3.2 | 0.18 | 2.82 | 0.03 | 95 | 1008.9 |
| 20260506040559 | 8 | 0 | 0.0 | 0.0 | 0.20 | 2.82 | 0.03 | 95 | 1009.0 |
| 20260506040059 | 8 | 0 | 0.0 | 0.0 | 0.20 | 2.79 | 0.00 | 95 | 1008.9 |
| 20260506035600 | 8 | 0 | 0.0 | 1.6 | 0.23 | 2.77 | 2.77 | 95 | 1008.9 |
| 20260506035101 | 8 | 0 | 0.0 | 1.6 | 0.25 | 2.74 | 2.74 | 95 | 1009.1 |
| 20260506034603 | 8 | 0 | 0.0 | 3.2 | 0.25 | 2.72 | 2.72 | 95 | 1009.1 |
| 20260506034059 | 8 | 0 | 0.0 | 3.2 | 0.30 | 2.72 | 2.72 | 95 | 1009.3 |
| 20260506033600 | 8 | 70 | 1.6 | 3.2 | 0.33 | 2.67 | 2.67 | 95 | 1009.1 |
| 20260506033059 | 8 | 24 | 0.0 | 3.2 | 0.51 | 2.67 | 2.67 | 94 | 1009.1 |
| 20260506032602 | 8 | 0 | 0.0 | 1.6 | 0.56 | 2.64 | 2.64 | 95 | 1009.3 |
| 20260506032102 | 8 | 70 | 0.0 | 0.0 | 0.61 | 2.64 | 2.64 | 94 | 1009.4 |
| 20260506031604 | 9 | 0 | 0.0 | 1.6 | 0.64 | 2.64 | 2.64 | 94 | 1009.5 |
| 20260506031101 | 9 | 0 | 0.0 | 1.6 | 0.69 | 2.64 | 2.64 | 94 | 1009.5 |
| 20260506030600 | 9 | 0 | 0.0 | 1.6 | 0.69 | 2.62 | 2.62 | 95 | 1009.6 |
| 20260506030059 | 9 | 0 | 0.0 | 1.6 | 0.71 | 2.59 | 2.59 | 95 | 1009.8 |
| 20260506025600 | 9 | 46 | 0.0 | 1.6 | 0.69 | 2.54 | 2.54 | 95 | 1009.4 |
| 20260506025100 | 9 | 292 | 0.0 | 0.0 | 0.69 | 2.49 | 2.49 | 95 | 1009.4 |
| 20260506024608 | 9 | 0 | 0.0 | 0.0 | 0.71 | 2.46 | 2.46 | 94 | 1009.1 |
| 20260506024101 | 9 | 0 | 0.0 | 0.0 | 0.71 | 2.41 | 2.41 | 94 | 1009.0 |
| 20260506023600 | 9 | 0 | 0.0 | 0.0 | 0.69 | 2.34 | 2.34 | 94 | 1008.9 |
| 20260506023112 | 9 | 0 | 0.0 | 0.0 | 0.58 | 2.18 | 2.18 | 94 | 1009.0 |
| 20260506022559 | 9 | 0 | 0.0 | 0.0 | 0.56 | 2.11 | 2.11 | 94 | 1009.0 |
| 20260506022105 | 9 | 0 | 0.0 | 0.0 | 0.58 | 2.06 | 2.06 | 94 | 1009.0 |
| 20260506021602 | 9 | 0 | 0.0 | 0.0 | 0.56 | 2.01 | 2.01 | 94 | 1008.9 |
| 20260506021059 | 9 | 0 | 0.0 | 0.0 | 0.56 | 1.96 | 1.96 | 94 | 1008.8 |
| 20260506020600 | 9 | 0 | 0.0 | 0.0 | 0.53 | 1.93 | 1.93 | 94 | 1008.8 |
| 20260506020059 | 9 | 0 | 0.0 | 0.0 | 0.51 | 1.88 | 1.88 | 94 | 1008.8 |
| 20260506015601 | 9 | 0 | 0.0 | 0.0 | 0.48 | 1.85 | 1.85 | 94 | 1008.9 |
| 20260506015102 | 9 | 0 | 0.0 | 0.0 | 0.46 | 1.80 | 1.80 | 94 | 1008.8 |
| 20260506014601 | 9 | 0 | 0.0 | 0.0 | 0.41 | 1.75 | 1.75 | 94 | 1008.8 |
| 20260506014104 | 9 | 0 | 0.0 | 1.6 | 0.36 | 1.70 | 1.70 | 94 | 1008.9 |
| 20260506013600 | 9 | 0 | 0.0 | 1.6 | 0.30 | 1.65 | 1.65 | 94 | 1008.9 |
| 20260506013105 | 9 | 0 | 0.0 | 1.6 | 0.25 | 1.60 | 1.60 | 94 | 1008.8 |
| 20260506012603 | 9 | 0 | 0.0 | 3.2 | 0.20 | 1.55 | 1.55 | 94 | 1008.9 |
| 20260506012101 | 9 | 89 | 0.0 | 3.2 | 0.13 | 1.47 | 1.47 | 94 | 1008.7 |
| 20260506011606 | 9 | 0 | 0.0 | 0.0 | 0.13 | 1.45 | 1.45 | 94 | 1008.6 |
| 20260506011100 | 8 | 0 | 0.0 | 0.0 | 0.08 | 1.40 | 1.40 | 94 | 1008.6 |
| 20260506010600 | 8 | 0 | 0.0 | 1.6 | 0.10 | 1.40 | 1.40 | 94 | 1008.4 |
| 20260506010058 | 8 | 0 | 0.0 | 1.6 | 0.13 | 1.37 | 1.37 | 94 | 1008.6 |
| 20260506005600 | 8 | 32 | 0.0 | 0.0 | 0.18 | 1.37 | 1.37 | 94 | 1008.5 |
| 20260506005059 | 8 | 0 | 0.0 | 1.6 | 0.20 | 1.32 | 1.32 | 94 | 1008.6 |
| 20260506004601 | 8 | 0 | 0.0 | 1.6 | 0.23 | 1.32 | 1.32 | 94 | 1008.6 |
| 20260506004100 | 8 | 0 | 0.0 | 1.6 | 0.28 | 1.32 | 1.32 | 94 | 1008.6 |
| 20260506003600 | 9 | 0 | 0.0 | 1.6 | 0.30 | 1.32 | 1.32 | 94 | 1008.6 |
| 20260506003059 | 8 | 0 | 0.0 | 1.6 | 0.33 | 1.32 | 1.32 | 94 | 1008.5 |
| 20260506002600 | 8 | 0 | 0.0 | 3.2 | 0.36 | 1.32 | 1.32 | 94 | 1008.5 |
| 20260506002100 | 8 | 32 | 0.0 | 3.2 | 0.66 | 1.32 | 1.32 | 93 | 1008.3 |
| 20260506001600 | 9 | 33 | 0.0 | 3.2 | 0.74 | 1.32 | 1.32 | 93 | 1008.5 |
| 20260506001100 | 9 | 82 | 0.0 | 3.2 | 0.84 | 1.32 | 1.32 | 93 | 1008.5 |
| 20260506000600 | 9 | 0 | 0.0 | 3.2 | 0.84 | 1.30 | 1.30 | 93 | 1008.6 |
| 20260506000105 | 9 | 23 | 0.0 | 3.2 | 0.79 | 1.24 | 1.24 | 93 | 1008.8 |
| 20260505235601 | 9 | 0 | 0.0 | 3.2 | 0.74 | 1.19 | 1.19 | 93 | 1008.8 |
| 20260505235101 | 9 | 44 | 0.0 | 1.6 | 0.71 | 1.14 | 1.14 | 93 | 1008.9 |
| 20260505234559 | 9 | 0 | 0.0 | 3.2 | 0.69 | 1.12 | 1.12 | 93 | 1009.0 |
| 20260505234100 | 10 | 0 | 0.0 | 3.2 | 0.64 | 1.07 | 1.07 | 93 | 1008.7 |
| 20260505233600 | 10 | 56 | 0.0 | 6.4 | 0.64 | 1.04 | 1.04 | 93 | 1008.8 |
| 20260505233059 | 10 | 30 | 1.6 | 6.4 | 0.61 | 1.02 | 1.02 | 93 | 1008.7 |
| 20260505232600 | 10 | 72 | 1.6 | 4.8 | 0.58 | 0.99 | 0.99 | 93 | 1008.5 |
| 20260505232100 | 10 | 247 | 1.6 | 4.8 | 0.28 | 0.69 | 0.69 | 93 | 1009.4 |
| 20260505231600 | 10 | 58 | 0.0 | 6.4 | 0.20 | 0.58 | 0.58 | 93 | 1008.4 |
| 20260505231100 | 10 | 65 | 1.6 | 6.4 | 0.10 | 0.48 | 0.48 | 92 | 1008.3 |
| 20260505230600 | 10 | 19 | 1.6 | 4.8 | 0.08 | 0.46 | 0.46 | 92 | 1008.1 |
| 20260505230121 | 10 | 8 | 1.6 | 4.8 | 0.08 | 0.46 | 0.46 | 92 | 1008.1 |
| 20260505225558 | 10 | 56 | 1.6 | 4.8 | 0.08 | 0.46 | 0.46 | 92 | 1008.2 |
| 20260505225100 | 11 | 45 | 1.6 | 4.8 | 0.05 | 0.43 | 0.43 | 92 | 1008.0 |
| 20260505224558 | 11 | 56 | 0.0 | 6.4 | 0.08 | 0.43 | 0.43 | 92 | 1008.2 |
| 20260505224100 | 11 | 49 | 1.6 | 6.4 | 0.08 | 0.43 | 0.43 | 92 | 1008.0 |
| 20260505223600 | 11 | 28 | 0.0 | 4.8 | 0.05 | 0.41 | 0.41 | 92 | 1008.1 |
| 20260505223058 | 11 | 311 | 1.6 | 4.8 | 0.05 | 0.41 | 0.41 | 91 | 1008.3 |
| 20260505222601 | 11 | 25 | 1.6 | 4.8 | 0.08 | 0.41 | 0.41 | 91 | 1008.3 |
| 20260505222101 | 12 | 25 | 1.6 | 4.8 | 0.23 | 0.41 | 0.41 | 91 | 1008.2 |
| 20260505221604 | 12 | 58 | 0.0 | 4.8 | 0.23 | 0.38 | 0.38 | 91 | 1008.2 |
| 20260505221100 | 13 | 334 | 1.6 | 4.8 | 0.23 | 0.38 | 0.38 | 91 | 1008.1 |
| 20260505220602 | 13 | 323 | 0.0 | 3.2 | 0.23 | 0.38 | 0.38 | 93 | 1008.3 |
| 20260505220104 | 13 | 0 | 0.0 | 0.0 | 0.23 | 0.38 | 0.38 | 93 | 1008.1 |
| 20260505215601 | 13 | 0 | 0.0 | 0.0 | 0.23 | 0.38 | 0.38 | 92 | 1008.1 |
| 20260505215100 | 13 | 0 | 0.0 | 0.0 | 0.23 | 0.38 | 0.38 | 92 | 1008.0 |
| 20260505214610 | 13 | 0 | 0.0 | 0.0 | 0.25 | 0.36 | 0.36 | 92 | 1008.1 |
| 20260505214059 | 13 | 0 | 0.0 | 0.0 | 0.28 | 0.36 | 0.36 | 92 | 1008.1 |
| 20260505213600 | 13 | 0 | 0.0 | 1.6 | 0.30 | 0.36 | 0.36 | 92 | 1008.2 |
| 20260505213059 | 13 | 0 | 0.0 | 1.6 | 0.33 | 0.36 | 0.36 | 92 | 1008.2 |
| 20260505212600 | 13 | 0 | 0.0 | 1.6 | 0.30 | 0.33 | 0.33 | 92 | 1007.9 |
| 20260505212101 | 13 | 17 | 0.0 | 0.0 | 0.15 | 0.18 | 0.18 | 91 | 1008.3 |
| 20260505211605 | 13 | 0 | 0.0 | 0.0 | 0.13 | 0.15 | 0.15 | 91 | 1008.0 |
| 20260505211102 | 13 | 0 | 0.0 | 0.0 | 0.13 | 0.15 | 0.15 | 90 | 1007.9 |
| 20260505210601 | 13 | 0 | 0.0 | 1.6 | 0.13 | 0.15 | 0.15 | 90 | 1007.9 |
| 20260505210106 | 13 | 0 | 0.0 | 1.6 | 0.13 | 0.15 | 0.15 | 90 | 1007.8 |
| 20260505205602 | 14 | 0 | 0.0 | 1.6 | 0.13 | 0.15 | 0.15 | 89 | 1007.9 |
| 20260505205101 | 14 | 0 | 0.0 | 3.2 | 0.13 | 0.15 | 0.15 | 89 | 1007.9 |
| 20260505204605 | 15 | 0 | 0.0 | 3.2 | 0.08 | 0.10 | 0.10 | 88 | 1007.9 |
| 20260505204101 | 15 | 309 | 0.0 | 3.2 | 0.05 | 0.08 | 0.08 | 88 | 1007.9 |
| 20260505203603 | 15 | 27 | 0.0 | 1.6 | 0.03 | 0.05 | 0.05 | 88 | 1007.9 |
| 20260505203108 | 15 | 0 | 0.0 | 1.6 | 0.00 | 0.03 | 0.03 | 87 | 1007.9 |
| 20260505202600 | 15 | 252 | 0.0 | 0.0 | 0.00 | 0.03 | 0.03 | 87 | 1007.6 |
| 20260505202059 | 15 | 0 | 0.0 | 0.0 | 0.00 | 0.03 | 0.03 | 87 | 1007.6 |
| 20260505201600 | 15 | 0 | 0.0 | 0.0 | 0.00 | 0.03 | 0.03 | 89 | 1007.6 |
| 20260505201100 | 15 | 0 | 0.0 | 0.0 | 0.03 | 0.03 | 0.03 | 88 | 1007.6 |
| 20260505200601 | 15 | 0 | 0.0 | 0.0 | 0.03 | 0.03 | 0.03 | 88 | 1007.7 |
| 20260505200110 | 15 | 0 | 0.0 | 0.0 | 0.03 | 0.03 | 0.03 | 88 | 1007.8 |
| 20260505195600 | 15 | 0 | 0.0 | 0.0 | 0.03 | 0.03 | 0.03 | 87 | 1007.7 |
| 20260505195100 | 15 | 0 | 0.0 | 0.0 | 0.03 | 0.03 | 0.03 | 87 | 1007.8 |
| 20260505194603 | 15 | 0 | 0.0 | 0.0 | 0.03 | 0.03 | 0.03 | 87 | 1007.7 |
| 20260505194100 | 16 | 0 | 0.0 | 0.0 | 0.03 | 0.03 | 0.03 | 88 | 1007.6 |
| 20260505193601 | 15 | 0 | 0.0 | 0.0 | 0.03 | 0.03 | 0.03 | 86 | 1007.6 |
| 20260505193105 | 16 | 0 | 0.0 | 0.0 | 0.03 | 0.03 | 0.03 | 86 | 1007.6 |
| 20260505192600 | 16 | 0 | 0.0 | 0.0 | 0.03 | 0.03 | 0.03 | 85 | 1007.7 |
| 20260505192100 | 16 | 0 | 0.0 | 0.0 | 0.03 | 0.03 | 0.03 | 83 | 1008.0 |
| 20260505191608 | 16 | 0 | 0.0 | 1.6 | 0.00 | 0.00 | 0.00 | 81 | 1008.1 |
| 20260505191100 | 16 | 0 | 0.0 | 3.2 | 0.00 | 0.00 | 0.00 | 79 | 1008.1 |
| 20260505190559 | 16 | 0 | 0.0 | 3.2 | 0.00 | 0.00 | 0.00 | 77 | 1008.3 |
| 20260505190100 | 17 | 248 | 1.6 | 3.2 | 0.00 | 0.00 | 0.00 | 74 | 1008.3 |
| 20260505185603 | 17 | 247 | 0.0 | 4.8 | 0.00 | 0.00 | 0.00 | 71 | 1008.3 |
| 20260505185101 | 17 | 0 | 1.6 | 4.8 | 0.00 | 0.00 | 0.00 | 69 | 1008.1 |
| 20260505184559 | 17 | 235 | 1.6 | 3.2 | 0.00 | 0.00 | 0.00 | 68 | 1008.1 |
| 20260505184101 | 17 | 262 | 1.6 | 4.8 | 0.00 | 0.00 | 0.00 | 68 | 1008.1 |
| 20260505183600 | 18 | 245 | 1.6 | 4.8 | 0.00 | 0.00 | 0.00 | 67 | 1008.2 |
| 20260505183101 | 18 | 256 | 1.6 | 4.8 | 0.00 | 0.00 | 0.00 | 67 | 1008.1 |
| 20260505182600 | 18 | 0 | 0.0 | 1.6 | 0.00 | 0.00 | 0.00 | 67 | 1008.1 |
| 20260505182100 | 18 | 255 | 0.0 | 3.2 | 0.00 | 0.00 | 0.00 | 67 | 1008.1 |
| 20260505181600 | 18 | 0 | 0.0 | 3.2 | 0.00 | 0.00 | 0.00 | 66 | 1008.2 |
| 20260505181101 | 18 | 238 | 0.0 | 4.8 | 0.00 | 0.00 | 0.00 | 67 | 1008.1 |
| 20260505180600 | 18 | 236 | 1.6 | 4.8 | 0.00 | 0.00 | 0.00 | 66 | 1008.1 |
| 20260505180058 | 18 | 257 | 0.0 | 4.8 | 0.00 | 0.00 | 0.00 | 66 | 1007.9 |
| 20260505175601 | 18 | 267 | 0.0 | 4.8 | 0.00 | 0.00 | 0.00 | 66 | 1008.0 |
| 20260505175100 | 18 | 262 | 1.6 | 4.8 | 0.00 | 0.00 | 0.00 | 64 | 1007.9 |
| 20260505174603 | 18 | 295 | 1.6 | 8.0 | 0.00 | 0.00 | 0.00 | 63 | 1007.8 |
| 20260505174100 | 19 | 250 | 3.2 | 8.0 | 0.00 | 0.00 | 0.00 | 62 | 1007.8 |
| 20260505173600 | 19 | 245 | 1.6 | 6.4 | 0.00 | 0.00 | 0.00 | 61 | 1007.7 |
| 20260505173101 | 19 | 257 | 1.6 | 6.4 | 0.00 | 0.00 | 0.00 | 62 | 1007.7 |
| 20260505172600 | 20 | 285 | 3.2 | 9.7 | 0.00 | 0.00 | 0.00 | 60 | 1007.6 |
| 20260505172100 | 20 | 178 | 3.2 | 9.7 | 0.00 | 0.00 | 0.00 | 61 | 1007.7 |
| 20260505171601 | 19 | 206 | 1.6 | 9.7 | 0.00 | 0.00 | 0.00 | 62 | 1007.6 |
| 20260505171101 | 19 | 272 | 3.2 | 9.7 | 0.00 | 0.00 | 0.00 | 61 | 1007.6 |
| 20260505170600 | 19 | 231 | 1.6 | 8.0 | 0.00 | 0.00 | 0.00 | 61 | 1007.5 |
| 20260505165601 | 19 | 250 | 3.2 | 8.0 | 0.00 | 0.00 | 0.00 | 61 | 1007.6 |
| 20260505165101 | 19 | 257 | 3.2 | 8.0 | 0.00 | 0.00 | 0.00 | 61 | 1007.5 |
| 20260505164602 | 19 | 0 | 0.0 | 8.0 | 0.00 | 0.00 | 0.00 | 63 | 1007.5 |
| 20260505164100 | 19 | 259 | 1.6 | 8.0 | 0.00 | 0.00 | 0.00 | 62 | 1007.4 |
| 20260505163601 | 20 | 262 | 1.6 | 4.8 | 0.00 | 0.00 | 0.00 | 62 | 1007.4 |
| 20260505163104 | 20 | 237 | 1.6 | 6.4 | 0.00 | 0.00 | 0.00 | 60 | 1007.4 |
| 20260505162601 | 20 | 300 | 3.2 | 6.4 | 0.00 | 0.00 | 0.00 | 61 | 1007.3 |
| 20260505162102 | 20 | 249 | 3.2 | 6.4 | 0.00 | 0.00 | 0.00 | 60 | 1007.3 |
| 20260505161610 | 20 | 236 | 1.6 | 9.7 | 0.00 | 0.00 | 0.00 | 61 | 1007.3 |
| 20260505161101 | 20 | 250 | 1.6 | 9.7 | 0.00 | 0.00 | 0.00 | 60 | 1007.2 |
| 20260505160601 | 20 | 280 | 3.2 | 9.7 | 0.00 | 0.00 | 0.00 | 59 | 1007.1 |
| 20260505153059 | 19 | 215 | 1.6 | 6.4 | 0.00 | 0.00 | 0.00 | 62 | 1007.0 |
| 20260505152601 | 19 | 231 | 1.6 | 6.4 | 0.00 | 0.00 | 0.00 | 64 | 1007.3 |
| 20260505152101 | 18 | 240 | 1.6 | 9.7 | 0.00 | 0.00 | 0.00 | 64 | 1007.1 |
| 20260505151600 | 18 | 259 | 3.2 | 9.7 | 0.00 | 0.00 | 0.00 | 63 | 1007.1 |
| 20260505151100 | 18 | 259 | 4.8 | 8.0 | 0.00 | 0.00 | 0.00 | 63 | 1007.0 |
| 20260505150600 | 18 | 261 | 3.2 | 6.4 | 0.00 | 0.00 | 0.00 | 63 | 1007.1 |